User: anonymous   Login
Location: Gro�sch�nbrunn
(49.5760°N, 11.8868°E)
Time: 02:31:37
(UTC+00:00)
Language:

KORONAS-FOTON - Orbit

View from above orbital plane
View from above orbital plane
View from above satellite
View from above satellite

Ground track
Ground track

The orbit data is extracted from the following two-line orbital elements,

1 33504U 09003A   20332.49960342 +.00000578 +00000-0 +28465-4 0  9993
2 33504 082.4439 060.5793 0020539 076.4254 283.9264 15.15780974652086
Epoch (UTC): 27 November 2020 11:59:25
Eccentricity: 0.0020539
inclination: 82.4439°
perigee height: 504 km
apogee height: 533 km
right ascension of ascending node: 60.5793°
argument of perigee: 76.4254°
revolutions per day: 15.15780974
mean anomaly at epoch: 283.9264°
orbit number at epoch: 65208

The dashed part of the orbit path shows where the satellite is in the earth's shadow,  

DLR